| time (UTC) | temp C | wind direction | speed KPH | gust KPH | rain 1hr cm | rain 24hr cm | rain mn cm | humidity % | barometer mb |
| 20260905205123 | 22 | 304 | 0.0 | 1.6 | 0.00 | 0.00 | 0.00 | 71 | 1017.9 |
| 20260905204624 | 22 | 304 | 0.0 | 0.0 | 0.00 | 0.00 | 0.00 | 70 | 1018.0 |
| 20260905204133 | 22 | 304 | 0.0 | 0.0 | 0.00 | 0.00 | 0.00 | 70 | 1017.9 |
| 20260905203625 | 22 | 304 | 0.0 | 0.0 | 0.00 | 0.00 | 0.00 | 69 | 1017.8 |
| 20260905203126 | 22 | 304 | 0.0 | 0.0 | 0.00 | 0.00 | 0.00 | 69 | 1018.0 |
| 20260905202625 | 22 | 304 | 0.0 | 0.0 | 0.00 | 0.00 | 0.00 | 68 | 1017.8 |
| 20260905202121 | 22 | 304 | 0.0 | 0.0 | 0.00 | 0.00 | 0.00 | 68 | 1017.6 |
| 20260905201624 | 22 | 304 | 0.0 | 0.0 | 0.00 | 0.00 | 0.00 | 68 | 1017.7 |
| 20260905201109 | 23 | 304 | 0.0 | 0.0 | 0.00 | 0.00 | 0.00 | 68 | 1017.8 |
| 20260905200609 | 23 | 304 | 0.0 | 0.0 | 0.00 | 0.00 | 0.00 | 68 | 1017.9 |
| 20260905200059 | 23 | 304 | 0.0 | 0.0 | 0.00 | 0.00 | 0.00 | 68 | 1017.8 |
| 20260905195547 | 23 | 304 | 0.0 | 0.0 | 0.00 | 0.00 | 0.00 | 68 | 1017.8 |
| 20260905194553 | 23 | 304 | 0.0 | 0.0 | 0.00 | 0.00 | 0.00 | 67 | 1017.7 |
| 20260905194043 | 23 | 304 | 0.0 | 0.0 | 0.00 | 0.00 | 0.00 | 67 | 1017.8 |
| 20260905193040 | 23 | 304 | 0.0 | 0.0 | 0.00 | 0.00 | 0.00 | 66 | 1017.5 |
| 20260905192536 | 23 | 304 | 0.0 | 0.0 | 0.00 | 0.00 | 0.00 | 66 | 1017.6 |
| 20260905192039 | 23 | 305 | 0.0 | 0.0 | 0.00 | 0.00 | 0.00 | 66 | 1017.3 |
| 20260905190537 | 24 | 305 | 0.0 | 0.0 | 0.00 | 0.00 | 0.00 | 64 | 1017.2 |
| 20260905190051 | 25 | 305 | 0.0 | 0.0 | 0.00 | 0.00 | 0.00 | 63 | 1017.3 |
| 20260905185533 | 25 | 305 | 0.0 | 1.6 | 0.00 | 0.00 | 0.00 | 62 | 1017.2 |
| 20260905185037 | 25 | 305 | 0.0 | 1.6 | 0.00 | 0.00 | 0.00 | 61 | 1017.2 |
| 20260905184522 | 26 | 305 | 0.0 | 0.0 | 0.00 | 0.00 | 0.00 | 60 | 1017.2 |
| 20260905184022 | 26 | 305 | 0.0 | 1.6 | 0.00 | 0.00 | 0.00 | 58 | 1017.2 |
| 20260905183532 | 26 | 305 | 0.0 | 1.6 | 0.00 | 0.00 | 0.00 | 57 | 1017.1 |
| 20260905183013 | 27 | 306 | 1.6 | 1.6 | 0.00 | 0.00 | 0.00 | 56 | 1017.0 |
| 20260905182516 | 27 | 307 | 0.0 | 1.6 | 0.00 | 0.00 | 0.00 | 55 | 1017.0 |
| 20260905182009 | 28 | 306 | 0.0 | 3.2 | 0.00 | 0.00 | 0.00 | 53 | 1016.8 |
| 20260905181500 | 28 | 306 | 0.0 | 3.2 | 0.00 | 0.00 | 0.00 | 52 | 1016.7 |
| 20260905180503 | 28 | 312 | 3.2 | 6.4 | 0.00 | 0.00 | 0.00 | 50 | 1016.7 |
| 20260905175951 | 28 | 314 | 3.2 | 6.4 | 0.00 | 0.00 | 0.00 | 49 | 1016.6 |
| 20260905175445 | 29 | 312 | 1.6 | 6.4 | 0.00 | 0.00 | 0.00 | 49 | 1016.6 |
| 20260905174948 | 29 | 311 | 4.8 | 6.4 | 0.00 | 0.00 | 0.00 | 49 | 1016.4 |
| 20260905174434 | 29 | 315 | 4.8 | 6.4 | 0.00 | 0.00 | 0.00 | 48 | 1016.2 |
| 20260905173441 | 29 | 318 | 3.2 | 6.4 | 0.00 | 0.00 | 0.00 | 47 | 1016.3 |
| 20260905172936 | 30 | 324 | 3.2 | 11.3 | 0.00 | 0.00 | 0.00 | 46 | 1016.3 |
| 20260905172439 | 30 | 323 | 9.7 | 11.3 | 0.00 | 0.00 | 0.00 | 46 | 1016.0 |
| 20260905170422 | 30 | 312 | 3.2 | 9.7 | 0.00 | 0.00 | 0.00 | 48 | 1016.1 |
| 20260905165421 | 31 | 303 | 6.4 | 11.3 | 0.00 | 0.00 | 0.00 | 48 | 1015.9 |
| 20260905164925 | 31 | 329 | 0.0 | 9.7 | 0.00 | 0.00 | 0.00 | 49 | 1015.9 |
| 20260905164424 | 31 | 325 | 8.0 | 9.7 | 0.00 | 0.00 | 0.00 | 48 | 1015.9 |
| 20260905163922 | 31 | 349 | 0.0 | 9.7 | 0.00 | 0.00 | 0.00 | 48 | 1016.0 |
| 20260905163427 | 31 | 320 | 4.8 | 14.5 | 0.00 | 0.00 | 0.00 | 47 | 1015.9 |
| 20260905162935 | 31 | 332 | 4.8 | 14.5 | 0.00 | 0.00 | 0.00 | 47 | 1015.6 |
| 20260905162422 | 31 | 3 | 0.0 | 9.7 | 0.00 | 0.00 | 0.00 | 46 | 1015.7 |
| 20260905161923 | 31 | 341 | 3.2 | 9.7 | 0.00 | 0.00 | 0.00 | 45 | 1015.8 |
| 20260905161424 | 32 | 333 | 0.0 | 9.7 | 0.00 | 0.00 | 0.00 | 45 | 1015.6 |
| 20260905160922 | 32 | 332 | 1.6 | 12.9 | 0.00 | 0.00 | 0.00 | 45 | 1015.7 |
| 20260905160422 | 32 | 320 | 1.6 | 12.9 | 0.00 | 0.00 | 0.00 | 45 | 1015.7 |
| 20260905155924 | 32 | 329 | 4.8 | 11.3 | 0.00 | 0.00 | 0.00 | 45 | 1015.7 |
| 20260905155421 | 32 | 314 | 3.2 | 11.3 | 0.00 | 0.00 | 0.00 | 44 | 1015.6 |
| 20260905154424 | 32 | 300 | 0.0 | 12.9 | 0.00 | 0.00 | 0.00 | 45 | 1015.5 |
| 20260905153922 | 32 | 311 | 8.0 | 17.7 | 0.00 | 0.00 | 0.00 | 44 | 1015.6 |
| 20260905153424 | 32 | 318 | 0.0 | 17.7 | 0.00 | 0.00 | 0.00 | 44 | 1015.6 |
| 20260905152428 | 32 | 313 | 4.8 | 14.5 | 0.00 | 0.00 | 0.00 | 43 | 1015.5 |
| 20260905151925 | 32 | 326 | 4.8 | 14.5 | 0.00 | 0.00 | 0.00 | 42 | 1015.7 |
| 20260905151410 | 32 | 315 | 3.2 | 12.9 | 0.00 | 0.00 | 0.00 | 41 | 1015.6 |
| 20260905150910 | 32 | 322 | 3.2 | 14.5 | 0.00 | 0.00 | 0.00 | 42 | 1015.6 |
| 20260905150413 | 32 | 329 | 3.2 | 14.5 | 0.00 | 0.00 | 0.00 | 41 | 1015.5 |
| 20260905145858 | 32 | 318 | 8.0 | 12.9 | 0.00 | 0.00 | 0.00 | 41 | 1015.7 |
| 20260905145401 | 32 | 322 | 4.8 | 16.1 | 0.00 | 0.00 | 0.00 | 41 | 1015.5 |
| 20260905144858 | 32 | 324 | 1.6 | 16.1 | 0.00 | 0.00 | 0.00 | 41 | 1015.7 |
| 20260905144350 | 33 | 306 | 4.8 | 12.9 | 0.00 | 0.00 | 0.00 | 40 | 1015.7 |
| 20260905143348 | 33 | 86 | 0.0 | 11.3 | 0.00 | 0.00 | 0.00 | 38 | 1015.7 |
| 20260905142837 | 33 | 349 | 1.6 | 11.3 | 0.00 | 0.00 | 0.00 | 37 | 1015.8 |
| 20260905142337 | 33 | 316 | 1.6 | 11.3 | 0.00 | 0.00 | 0.00 | 36 | 1015.7 |
| 20260905141838 | 33 | 326 | 6.4 | 11.3 | 0.00 | 0.00 | 0.00 | 35 | 1015.8 |
| 20260905141336 | 33 | 316 | 9.7 | 11.3 | 0.00 | 0.00 | 0.00 | 34 | 1015.8 |
| 20260905140838 | 33 | 357 | 6.4 | 9.7 | 0.00 | 0.00 | 0.00 | 35 | 1015.9 |
| 20260905140339 | 33 | 83 | 0.0 | 9.7 | 0.00 | 0.00 | 0.00 | 34 | 1016.0 |
| 20260905135840 | 33 | 291 | 0.0 | 9.7 | 0.00 | 0.00 | 0.00 | 35 | 1016.0 |
| 20260905135338 | 33 | 294 | 3.2 | 12.9 | 0.00 | 0.00 | 0.00 | 33 | 1016.3 |
| 20260905134823 | 34 | 335 | 4.8 | 12.9 | 0.00 | 0.00 | 0.00 | 32 | 1016.1 |
| 20260905134322 | 35 | 80 | 0.0 | 3.2 | 0.00 | 0.00 | 0.00 | 31 | 1015.9 |
| 20260905133824 | 36 | 343 | 0.0 | 6.4 | 0.00 | 0.00 | 0.00 | 27 | 1016.1 |
| 20260905133322 | 36 | 320 | 0.0 | 6.4 | 0.00 | 0.00 | 0.00 | 26 | 1016.2 |
| 20260905132821 | 36 | 188 | 0.0 | 3.2 | 0.00 | 0.00 | 0.00 | 26 | 1016.2 |
| 20260905131312 | 36 | 318 | 0.0 | 4.8 | 0.00 | 0.00 | 0.00 | 28 | 1016.4 |
| 20260905130810 | 35 | 311 | 1.6 | 4.8 | 0.00 | 0.00 | 0.00 | 28 | 1016.4 |
| 20260905130303 | 35 | 121 | 0.0 | 3.2 | 0.00 | 0.00 | 0.00 | 28 | 1016.4 |
| 20260905125758 | 35 | 43 | 1.6 | 6.4 | 0.00 | 0.00 | 0.00 | 29 | 1016.4 |
| 20260905125259 | 35 | 322 | 3.2 | 6.4 | 0.00 | 0.00 | 0.00 | 28 | 1016.5 |
| 20260905124800 | 35 | 17 | 0.0 | 9.7 | 0.00 | 0.00 | 0.00 | 28 | 1016.5 |
| 20260905124258 | 34 | 313 | 1.6 | 11.3 | 0.00 | 0.00 | 0.00 | 29 | 1016.3 |
| 20260905123758 | 33 | 312 | 1.6 | 11.3 | 0.00 | 0.00 | 0.00 | 30 | 1016.7 |
| 20260905123301 | 33 | 326 | 4.8 | 17.7 | 0.00 | 0.00 | 0.00 | 31 | 1016.8 |
| 20260905122746 | 33 | 327 | 8.0 | 17.7 | 0.00 | 0.00 | 0.00 | 30 | 1016.7 |
| 20260905122253 | 33 | 313 | 0.0 | 12.9 | 0.00 | 0.00 | 0.00 | 33 | 1016.9 |
| 20260905121750 | 33 | 315 | 3.2 | 12.9 | 0.00 | 0.00 | 0.00 | 32 | 1016.9 |
| 20260905121239 | 33 | 308 | 3.2 | 14.5 | 0.00 | 0.00 | 0.00 | 32 | 1016.8 |
| 20260905120734 | 33 | 307 | 12.9 | 14.5 | 0.00 | 0.00 | 0.00 | 32 | 1017.0 |
| 20260905120235 | 33 | 329 | 0.0 | 12.9 | 0.00 | 0.00 | 0.00 | 32 | 1017.0 |
| 20260905115736 | 33 | 324 | 4.8 | 11.3 | 0.00 | 0.00 | 0.00 | 32 | 1017.1 |
| 20260905114734 | 33 | 251 | 6.4 | 12.9 | 0.00 | 0.00 | 0.00 | 31 | 1017.1 |
| 20260905113742 | 33 | 156 | 1.6 | 12.9 | 0.00 | 0.00 | 0.00 | 31 | 1017.0 |
| 20260905113236 | 33 | 310 | 4.8 | 9.7 | 0.00 | 0.00 | 0.00 | 31 | 1017.4 |
| 20260905112237 | 33 | 62 | 0.0 | 3.2 | 0.00 | 0.00 | 0.00 | 33 | 1017.2 |
| 20260905111236 | 32 | 320 | 0.0 | 11.3 | 0.00 | 0.00 | 0.00 | 34 | 1017.3 |
| 20260905110734 | 33 | 318 | 1.6 | 11.3 | 0.00 | 0.00 | 0.00 | 31 | 1017.6 |
| 20260905110233 | 32 | 133 | 0.0 | 11.3 | 0.00 | 0.00 | 0.00 | 33 | 1017.8 |
| 20260905105742 | 32 | 306 | 0.0 | 11.3 | 0.00 | 0.00 | 0.00 | 35 | 1017.5 |
| 20260905105233 | 32 | 339 | 1.6 | 9.7 | 0.00 | 0.00 | 0.00 | 33 | 1017.3 |
| 20260905104737 | 32 | 317 | 4.8 | 12.9 | 0.00 | 0.00 | 0.00 | 32 | 1017.5 |
| 20260905104240 | 32 | 317 | 6.4 | 12.9 | 0.00 | 0.00 | 0.00 | 34 | 1017.6 |
| 20260905103738 | 33 | 336 | 1.6 | 9.7 | 0.00 | 0.00 | 0.00 | 30 | 1017.6 |
| 20260905103237 | 33 | 308 | 0.0 | 9.7 | 0.00 | 0.00 | 0.00 | 33 | 1017.7 |
| 20260905102225 | 32 | 354 | 1.6 | 9.7 | 0.00 | 0.00 | 0.00 | 33 | 1017.7 |
| 20260905101221 | 32 | 308 | 3.2 | 9.7 | 0.00 | 0.00 | 0.00 | 34 | 1017.7 |
| 20260905100721 | 32 | 31 | 1.6 | 9.7 | 0.00 | 0.00 | 0.00 | 33 | 1017.7 |
| 20260905095722 | 32 | 339 | 3.2 | 6.4 | 0.00 | 0.00 | 0.00 | 34 | 1017.9 |
| 20260905095222 | 32 | 297 | 3.2 | 4.8 | 0.00 | 0.00 | 0.00 | 32 | 1017.7 |
| 20260905094727 | 31 | 8 | 0.0 | 6.4 | 0.00 | 0.00 | 0.00 | 36 | 1017.8 |
| 20260905094226 | 32 | 309 | 3.2 | 4.8 | 0.00 | 0.00 | 0.00 | 32 | 1018.0 |
| 20260905093726 | 31 | 303 | 0.0 | 6.4 | 0.00 | 0.00 | 0.00 | 35 | 1018.0 |
| 20260905093224 | 32 | 296 | 3.2 | 6.4 | 0.00 | 0.00 | 0.00 | 32 | 1018.0 |
| 20260905092724 | 32 | 304 | 0.0 | 1.6 | 0.00 | 0.00 | 0.00 | 37 | 1018.1 |
| 20260905092222 | 32 | 304 | 0.0 | 3.2 | 0.00 | 0.00 | 0.00 | 35 | 1017.7 |
| 20260905091723 | 32 | 300 | 0.0 | 3.2 | 0.00 | 0.00 | 0.00 | 37 | 1017.7 |
| 20260905085700 | 29 | 294 | 0.0 | 3.2 | 0.00 | 0.00 | 0.00 | 45 | 1017.6 |
| 20260905085158 | 29 | 294 | 0.0 | 3.2 | 0.00 | 0.00 | 0.00 | 43 | 1017.9 |
| 20260905084649 | 28 | 305 | 0.0 | 1.6 | 0.00 | 0.00 | 0.00 | 43 | 1018.0 |
| 20260905083647 | 28 | 303 | 0.0 | 1.6 | 0.00 | 0.00 | 0.00 | 49 | 1018.2 |
| 20260905083135 | 28 | 308 | 0.0 | 3.2 | 0.00 | 0.00 | 0.00 | 46 | 1018.1 |
| 20260905082640 | 27 | 309 | 1.6 | 3.2 | 0.00 | 0.00 | 0.00 | 49 | 1018.1 |
| 20260905082139 | 27 | 160 | 0.0 | 0.0 | 0.00 | 0.00 | 0.00 | 48 | 1018.0 |
| 20260905081622 | 27 | 160 | 0.0 | 0.0 | 0.00 | 0.00 | 0.00 | 51 | 1018.0 |
| 20260905080623 | 26 | 160 | 0.0 | 0.0 | 0.00 | 0.00 | 0.00 | 53 | 1018.0 |
| 20260905075627 | 26 | 160 | 0.0 | 0.0 | 0.00 | 0.00 | 0.00 | 52 | 1017.7 |
| 20260905074624 | 25 | 160 | 0.0 | 1.6 | 0.00 | 0.00 | 0.00 | 52 | 1017.6 |
| 20260905073624 | 24 | 154 | 0.0 | 1.6 | 0.00 | 0.00 | 0.00 | 56 | 1017.8 |
| 20260905073125 | 23 | 274 | 0.0 | 1.6 | 0.00 | 0.00 | 0.00 | 58 | 1017.8 |
| 20260905072110 | 22 | 266 | 0.0 | 1.6 | 0.00 | 0.00 | 0.00 | 63 | 1017.7 |
| 20260905071612 | 22 | 246 | 0.0 | 1.6 | 0.00 | 0.00 | 0.00 | 63 | 1017.8 |
| 20260905071110 | 22 | 247 | 0.0 | 1.6 | 0.00 | 0.00 | 0.00 | 61 | 1017.9 |
| 20260905070559 | 21 | 247 | 0.0 | 1.6 | 0.00 | 0.00 | 0.00 | 66 | 1017.9 |
| 20260905065559 | 20 | 247 | 0.0 | 1.6 | 0.00 | 0.00 | 0.00 | 69 | 1017.7 |
| 20260905065047 | 20 | 247 | 0.0 | 1.6 | 0.00 | 0.00 | 0.00 | 69 | 1017.5 |
| 20260905064546 | 20 | 246 | 0.0 | 0.0 | 0.00 | 0.00 | 0.00 | 67 | 1017.5 |
| 20260905064051 | 20 | 246 | 0.0 | 0.0 | 0.00 | 0.00 | 0.00 | 68 | 1017.8 |
| 20260905063533 | 19 | 247 | 0.0 | 0.0 | 0.00 | 0.00 | 0.00 | 69 | 1017.9 |
| 20260905063040 | 19 | 247 | 0.0 | 1.6 | 0.00 | 0.00 | 0.00 | 71 | 1017.9 |
| 20260905062534 | 18 | 248 | 1.6 | 1.6 | 0.00 | 0.00 | 0.00 | 71 | 1017.9 |
| 20260905062039 | 18 | 247 | 0.0 | 1.6 | 0.00 | 0.00 | 0.00 | 73 | 1017.9 |
| 20260905061536 | 18 | 247 | 0.0 | 1.6 | 0.00 | 0.00 | 0.00 | 73 | 1017.9 |
| 20260905061035 | 17 | 263 | 1.6 | 1.6 | 0.00 | 0.00 | 0.00 | 72 | 1017.9 |
| 20260905060534 | 17 | 263 | 0.0 | 1.6 | 0.00 | 0.00 | 0.00 | 75 | 1018.1 |
| 20260905060033 | 17 | 263 | 0.0 | 1.6 | 0.00 | 0.00 | 0.00 | 75 | 1018.0 |
| 20260905055521 | 16 | 265 | 0.0 | 1.6 | 0.00 | 0.00 | 0.00 | 76 | 1017.9 |
| 20260905055039 | 16 | 265 | 0.0 | 0.0 | 0.00 | 0.00 | 0.00 | 78 | 1018.0 |
| 20260905054522 | 15 | 274 | 0.0 | 0.0 | 0.00 | 0.00 | 0.00 | 80 | 1018.0 |
| 20260905054030 | 15 | 274 | 0.0 | 0.0 | 0.00 | 0.00 | 0.00 | 83 | 1017.9 |
| 20260905053526 | 15 | 274 | 0.0 | 0.0 | 0.00 | 0.00 | 0.00 | 84 | 1018.1 |
| 20260905053031 | 14 | 274 | 0.0 | 0.0 | 0.00 | 0.00 | 0.00 | 84 | 1018.1 |
| 20260905052512 | 14 | 274 | 0.0 | 0.0 | 0.00 | 0.00 | 0.00 | 84 | 1018.0 |
| 20260905052014 | 14 | 274 | 0.0 | 0.0 | 0.00 | 0.00 | 0.00 | 83 | 1018.1 |
| 20260905051446 | 14 | 274 | 0.0 | 0.0 | 0.00 | 0.00 | 0.00 | 84 | 1018.1 |
| 20260905050953 | 14 | 274 | 0.0 | 0.0 | 0.00 | 0.00 | 0.00 | 83 | 1018.1 |
| 20260905050454 | 14 | 274 | 0.0 | 0.0 | 0.00 | 0.00 | 0.00 | 84 | 1017.9 |
| 20260905045950 | 14 | 274 | 0.0 | 0.0 | 0.00 | 0.00 | 0.00 | 84 | 1018.0 |
| 20260905045436 | 14 | 274 | 0.0 | 0.0 | 0.00 | 0.00 | 0.00 | 84 | 1017.9 |
| 20260905044939 | 14 | 274 | 0.0 | 0.0 | 0.00 | 0.00 | 0.00 | 83 | 1017.7 |
| 20260905044437 | 14 | 275 | 0.0 | 0.0 | 0.00 | 0.00 | 0.00 | 83 | 1018.0 |
| 20260905043948 | 14 | 275 | 0.0 | 0.0 | 0.00 | 0.00 | 0.00 | 83 | 1017.9 |
| 20260905043437 | 14 | 275 | 0.0 | 0.0 | 0.00 | 0.00 | 0.00 | 83 | 1017.6 |
| 20260905042940 | 14 | 275 | 0.0 | 0.0 | 0.00 | 0.00 | 0.00 | 83 | 1017.8 |
| 20260905042441 | 14 | 275 | 0.0 | 0.0 | 0.00 | 0.00 | 0.00 | 83 | 1017.7 |
| 20260905041939 | 14 | 275 | 0.0 | 1.6 | 0.00 | 0.00 | 0.00 | 82 | 1017.6 |
| 20260905041437 | 14 | 275 | 0.0 | 1.6 | 0.00 | 0.00 | 0.00 | 81 | 1017.5 |
| 20260905040434 | 15 | 274 | 0.0 | 0.0 | 0.00 | 0.00 | 0.00 | 80 | 1017.7 |
| 20260905035936 | 15 | 274 | 0.0 | 1.6 | 0.00 | 0.00 | 0.00 | 80 | 1017.7 |
| 20260905035436 | 15 | 274 | 0.0 | 1.6 | 0.00 | 0.00 | 0.00 | 81 | 1017.6 |
| 20260905034936 | 15 | 274 | 0.0 | 0.0 | 0.00 | 0.00 | 0.00 | 80 | 1017.4 |
| 20260905034424 | 15 | 274 | 0.0 | 1.6 | 0.00 | 0.00 | 0.00 | 80 | 1017.5 |
| 20260905033924 | 15 | 274 | 0.0 | 1.6 | 0.00 | 0.00 | 0.00 | 80 | 1017.7 |
| 20260905033422 | 14 | 274 | 0.0 | 0.0 | 0.00 | 0.00 | 0.00 | 81 | 1017.4 |
| 20260905032927 | 15 | 274 | 0.0 | 0.0 | 0.00 | 0.00 | 0.00 | 80 | 1017.6 |
| 20260905031426 | 15 | 274 | 0.0 | 0.0 | 0.00 | 0.00 | 0.00 | 79 | 1017.6 |
| 20260905030930 | 15 | 274 | 0.0 | 0.0 | 0.00 | 0.00 | 0.00 | 78 | 1017.8 |
| 20260905030422 | 15 | 274 | 0.0 | 0.0 | 0.00 | 0.00 | 0.00 | 77 | 1017.7 |
| 20260905025927 | 15 | 274 | 0.0 | 0.0 | 0.00 | 0.00 | 0.00 | 76 | 1017.7 |
| 20260905024358 | 15 | 274 | 0.0 | 1.6 | 0.00 | 0.00 | 0.00 | 74 | 1017.8 |
| 20260905023848 | 15 | 275 | 1.6 | 1.6 | 0.00 | 0.00 | 0.00 | 75 | 1017.8 |
| 20260905023346 | 15 | 274 | 0.0 | 0.0 | 0.00 | 0.00 | 0.00 | 75 | 1017.7 |
| 20260905022835 | 15 | 274 | 0.0 | 0.0 | 0.00 | 0.00 | 0.00 | 75 | 1017.6 |
| 20260905022334 | 15 | 274 | 0.0 | 0.0 | 0.00 | 0.00 | 0.00 | 73 | 1017.7 |
| 20260905021836 | 15 | 274 | 0.0 | 0.0 | 0.00 | 0.00 | 0.00 | 73 | 1017.5 |
| 20260905021336 | 15 | 273 | 0.0 | 0.0 | 0.00 | 0.00 | 0.00 | 73 | 1017.6 |
| 20260905020838 | 15 | 275 | 0.0 | 0.0 | 0.00 | 0.00 | 0.00 | 73 | 1017.6 |
| 20260905020323 | 15 | 275 | 0.0 | 0.0 | 0.00 | 0.00 | 0.00 | 72 | 1017.6 |
| 20260905015824 | 15 | 275 | 0.0 | 0.0 | 0.00 | 0.00 | 0.00 | 71 | 1017.3 |
| 20260905015324 | 15 | 274 | 0.0 | 0.0 | 0.00 | 0.00 | 0.00 | 72 | 1017.7 |
| 20260905014821 | 16 | 274 | 0.0 | 0.0 | 0.00 | 0.00 | 0.00 | 71 | 1017.5 |
| 20260905014326 | 16 | 275 | 0.0 | 1.6 | 0.00 | 0.00 | 0.00 | 71 | 1017.5 |
| 20260905013827 | 16 | 276 | 0.0 | 1.6 | 0.00 | 0.00 | 0.00 | 72 | 1017.5 |
| 20260905013325 | 16 | 275 | 0.0 | 0.0 | 0.00 | 0.00 | 0.00 | 71 | 1017.7 |
| 20260905012328 | 16 | 275 | 0.0 | 0.0 | 0.00 | 0.00 | 0.00 | 70 | 1017.5 |
| 20260905011821 | 16 | 275 | 0.0 | 0.0 | 0.00 | 0.00 | 0.00 | 70 | 1017.6 |
| 20260905011323 | 16 | 275 | 0.0 | 0.0 | 0.00 | 0.00 | 0.00 | 70 | 1017.4 |
| 20260905010824 | 16 | 275 | 0.0 | 0.0 | 0.00 | 0.00 | 0.00 | 71 | 1017.5 |
| 20260905010325 | 16 | 275 | 0.0 | 0.0 | 0.00 | 0.00 | 0.00 | 71 | 1017.3 |
| 20260905005823 | 16 | 275 | 0.0 | 0.0 | 0.00 | 0.00 | 0.00 | 72 | 1017.5 |
| 20260905005327 | 16 | 275 | 0.0 | 0.0 | 0.00 | 0.00 | 0.00 | 71 | 1017.7 |
| 20260905004328 | 16 | 275 | 0.0 | 0.0 | 0.00 | 0.00 | 0.00 | 71 | 1017.6 |
| 20260905003824 | 17 | 275 | 0.0 | 0.0 | 0.00 | 0.00 | 0.00 | 71 | 1017.6 |
| 20260905003324 | 17 | 275 | 0.0 | 0.0 | 0.00 | 0.00 | 0.00 | 70 | 1017.6 |
| 20260905002826 | 17 | 280 | 0.0 | 0.0 | 0.00 | 0.00 | 0.00 | 68 | 1017.7 |
| 20260905002331 | 17 | 280 | 0.0 | 0.0 | 0.00 | 0.00 | 0.00 | 69 | 1017.8 |
| 20260905001822 | 17 | 280 | 0.0 | 0.0 | 0.00 | 0.00 | 0.00 | 69 | 1017.7 |
| 20260905001326 | 17 | 280 | 0.0 | 0.0 | 0.00 | 0.00 | 0.00 | 69 | 1017.7 |
| 20260905000828 | 17 | 280 | 0.0 | 0.0 | 0.00 | 0.00 | 0.00 | 69 | 1017.8 |
| 20260905000325 | 17 | 280 | 0.0 | 0.0 | 0.00 | 0.00 | 0.00 | 68 | 1017.7 |
| 20260904235758 | 17 | 280 | 0.0 | 0.0 | 0.00 | 0.00 | 0.00 | 68 | 1017.6 |
| 20260904235306 | 17 | 280 | 0.0 | 1.6 | 0.00 | 0.00 | 0.00 | 68 | 1017.8 |
| 20260904234237 | 17 | 277 | 0.0 | 3.2 | 0.00 | 0.00 | 0.00 | 69 | 1017.8 |
| 20260904233721 | 17 | 263 | 0.0 | 0.0 | 0.00 | 0.00 | 0.00 | 69 | 1017.8 |
| 20260904233224 | 17 | 263 | 0.0 | 0.0 | 0.00 | 0.00 | 0.00 | 68 | 1017.9 |
| 20260904232726 | 18 | 263 | 0.0 | 0.0 | 0.00 | 0.00 | 0.00 | 68 | 1018.0 |
| 20260904232225 | 18 | 263 | 0.0 | 0.0 | 0.00 | 0.00 | 0.00 | 68 | 1018.1 |
| 20260904231724 | 18 | 263 | 0.0 | 0.0 | 0.00 | 0.00 | 0.00 | 67 | 1017.9 |
| 20260904231222 | 18 | 263 | 0.0 | 0.0 | 0.00 | 0.00 | 0.00 | 67 | 1017.8 |
| 20260904230722 | 18 | 263 | 0.0 | 0.0 | 0.00 | 0.00 | 0.00 | 67 | 1017.8 |
| 20260904230224 | 18 | 263 | 0.0 | 0.0 | 0.00 | 0.00 | 0.00 | 67 | 1018.0 |
| 20260904225711 | 18 | 263 | 0.0 | 0.0 | 0.00 | 0.00 | 0.00 | 66 | 1017.9 |
| 20260904224654 | 18 | 263 | 0.0 | 0.0 | 0.00 | 0.00 | 0.00 | 66 | 1017.8 |
| 20260904223649 | 18 | 278 | 0.0 | 0.0 | 0.00 | 0.00 | 0.00 | 66 | 1017.9 |
| 20260904222637 | 19 | 279 | 0.0 | 0.0 | 0.00 | 0.00 | 0.00 | 64 | 1017.8 |
| 20260904222142 | 19 | 279 | 0.0 | 0.0 | 0.00 | 0.00 | 0.00 | 63 | 1017.8 |
| 20260904221637 | 19 | 279 | 0.0 | 1.6 | 0.00 | 0.00 | 0.00 | 63 | 1017.9 |
| 20260904220636 | 20 | 279 | 0.0 | 0.0 | 0.00 | 0.00 | 0.00 | 62 | 1018.0 |
| 20260904220133 | 20 | 279 | 0.0 | 1.6 | 0.00 | 0.00 | 0.00 | 61 | 1018.1 |
| 20260904215138 | 20 | 278 | 0.0 | 0.0 | 0.00 | 0.00 | 0.00 | 61 | 1018.0 |
| 20260904214639 | 20 | 280 | 0.0 | 0.0 | 0.00 | 0.00 | 0.00 | 60 | 1017.9 |
| 20260904214137 | 20 | 280 | 0.0 | 0.0 | 0.00 | 0.00 | 0.00 | 60 | 1017.8 |
| 20260904213639 | 21 | 280 | 0.0 | 0.0 | 0.00 | 0.00 | 0.00 | 59 | 1017.7 |
| 20260904213136 | 21 | 281 | 0.0 | 0.0 | 0.00 | 0.00 | 0.00 | 57 | 1017.9 |
| 20260904212637 | 21 | 281 | 0.0 | 0.0 | 0.00 | 0.00 | 0.00 | 57 | 1018.0 |
| 20260904212136 | 21 | 281 | 0.0 | 1.6 | 0.00 | 0.00 | 0.00 | 57 | 1017.9 |
| 20260904211134 | 21 | 278 | 0.0 | 1.6 | 0.00 | 0.00 | 0.00 | 56 | 1018.1 |
| 20260904210636 | 21 | 273 | 0.0 | 0.0 | 0.00 | 0.00 | 0.00 | 56 | 1018.0 |
| 20260904210133 | 22 | 274 | 0.0 | 1.6 | 0.00 | 0.00 | 0.00 | 56 | 1017.9 |
| 20260904205637 | 22 | 278 | 0.0 | 1.6 | 0.00 | 0.00 | 0.00 | 55 | 1018.0 |